Time,TemperatureF,DewpointF,PressureIn,WindDirection,WindDirectionDegrees,WindSpeedMPH,WindSpeedGustMPH,Humidity,HourlyPrecipIn,Conditions,Clouds,dailyrainin,SoftwareType,DateUTC
2013-04-25 00:00:00,53.9,49.2,29.90,SW,225,2.0,2.0,84,0.00,,OVC,0.00,VWS V14.00,2013-04-25 04:00:00,
2013-04-25 00:01:00,53.9,49.2,29.90,SW,225,0.0,0.0,84,0.00,,OVC,0.00,VWS V14.00,2013-04-25 04:01:00,
2013-04-25 00:06:00,53.9,49.2,29.91,West,270,0.0,0.0,84,0.00,,OVC,0.00,VWS V14.00,2013-04-25 04:06:00,
2013-04-25 00:11:00,53.9,49.2,29.90,WSW,248,8.0,8.0,84,0.00,,OVC,0.00,VWS V14.00,2013-04-25 04:11:00,
2013-04-25 00:16:00,54.1,49.4,29.90,SSW,202,6.4,6.4,84,0.00,,OVC,0.00,VWS V14.00,2013-04-25 04:16:00,
2013-04-25 00:21:00,54.3,49.9,29.90,WSW,248,1.7,1.7,85,0.00,,OVC,0.00,VWS V14.00,2013-04-25 04:21:00,
2013-04-25 00:26:00,54.5,49.8,29.90,WSW,248,5.3,5.3,84,0.00,,OVC,0.00,VWS V14.00,2013-04-25 04:26:00,
2013-04-25 00:31:00,54.6,49.9,29.89,SW,225,2.0,2.0,84,0.00,,OVC,0.00,VWS V14.00,2013-04-25 04:31:00,
2013-04-25 00:36:00,54.6,49.9,29.90,SW,225,3.5,3.5,84,0.00,,OVC,0.00,VWS V14.00,2013-04-25 04:36:00,
2013-04-25 00:41:00,54.6,49.9,29.90,WSW,248,2.6,2.6,84,0.00,,OVC,0.00,VWS V14.00,2013-04-25 04:41:00,
2013-04-25 00:46:00,54.8,50.1,29.90,SSW,202,5.1,5.1,84,0.00,,OVC,0.00,VWS V14.00,2013-04-25 04:46:00,
2013-04-25 00:51:00,55.0,50.3,29.90,SW,225,4.2,4.2,84,0.00,,OVC,0.00,VWS V14.00,2013-04-25 04:51:00,
2013-04-25 00:56:00,55.0,50.3,29.90,SW,225,0.0,0.0,84,0.00,,OVC,0.00,VWS V14.00,2013-04-25 04:56:00,
2013-04-25 01:01:00,55.0,50.3,29.90,WSW,248,0.0,0.0,84,0.00,,OVC,0.00,VWS V14.00,2013-04-25 05:01:00,
2013-04-25 01:06:00,55.0,50.3,29.90,SW,225,4.6,4.6,84,0.00,,OVC,0.00,VWS V14.00,2013-04-25 05:06:00,
2013-04-25 01:11:00,55.0,50.3,29.90,WSW,248,3.5,3.5,84,0.00,,OVC,0.00,VWS V14.00,2013-04-25 05:11:00,
2013-04-25 01:16:00,54.8,50.1,29.90,SW,225,1.1,1.1,84,0.00,,OVC,0.00,VWS V14.00,2013-04-25 05:16:00,
2013-04-25 01:21:00,54.6,49.9,29.90,SW,225,1.1,1.1,84,0.00,,OVC,0.00,VWS V14.00,2013-04-25 05:21:00,
2013-04-25 01:26:00,54.5,49.8,29.90,WSW,248,3.8,3.8,84,0.00,,OVC,0.00,VWS V14.00,2013-04-25 05:26:00,
2013-04-25 01:31:00,54.5,49.8,29.90,WSW,248,4.0,4.0,84,0.00,,OVC,0.00,VWS V14.00,2013-04-25 05:31:00,
2013-04-25 01:36:00,54.3,49.6,29.91,SSW,202,0.4,0.4,84,0.00,,OVC,0.00,VWS V14.00,2013-04-25 05:36:00,
2013-04-25 01:41:00,54.5,49.8,29.91,WSW,248,0.6,0.6,84,0.00,,OVC,0.00,VWS V14.00,2013-04-25 05:41:00,
2013-04-25 01:46:00,54.6,49.9,29.91,West,270,3.3,3.3,84,0.00,,OVC,0.00,VWS V14.00,2013-04-25 05:46:00,
2013-04-25 01:51:00,54.8,50.1,29.92,WSW,248,0.8,0.8,84,0.00,,OVC,0.00,VWS V14.00,2013-04-25 05:51:00,
2013-04-25 01:56:00,55.0,50.3,29.92,WSW,248,0.0,0.0,84,0.00,,OVC,0.00,VWS V14.00,2013-04-25 05:56:00,
2013-04-25 02:01:00,55.2,50.5,29.92,SSW,202,2.4,2.4,84,0.00,,OVC,0.00,VWS V14.00,2013-04-25 06:01:00,
2013-04-25 02:06:00,55.2,50.5,29.92,WSW,248,1.3,1.3,84,0.00,,OVC,0.00,VWS V14.00,2013-04-25 06:06:00,
2013-04-25 02:11:00,55.4,50.7,29.92,WNW,292,0.0,0.0,84,0.00,,OVC,0.00,VWS V14.00,2013-04-25 06:11:00,
2013-04-25 02:16:00,55.5,50.8,29.93,WNW,292,2.4,2.4,84,0.00,,OVC,0.00,VWS V14.00,2013-04-25 06:16:00,
2013-04-25 02:21:00,55.7,51.0,29.93,West,270,0.0,0.0,84,0.00,,OVC,0.00,VWS V14.00,2013-04-25 06:21:00,
2013-04-25 02:26:00,55.7,51.0,29.93,WNW,292,0.0,0.0,84,0.00,,OVC,0.00,VWS V14.00,2013-04-25 06:26:00,
2013-04-25 02:31:00,55.9,51.1,29.93,West,270,0.8,0.8,84,0.00,,OVC,0.00,VWS V14.00,2013-04-25 06:31:00,
2013-04-25 02:36:00,55.9,51.1,29.93,NW,315,3.3,3.3,84,0.00,,OVC,0.00,VWS V14.00,2013-04-25 06:36:00,
2013-04-25 02:41:00,56.1,51.3,29.93,NW,315,0.0,0.0,84,0.00,,OVC,0.00,VWS V14.00,2013-04-25 06:41:00,
2013-04-25 02:46:00,56.1,50.7,29.94,NE,45,3.3,3.3,82,0.00,,OVC,0.00,VWS V14.00,2013-04-25 06:46:00,
2013-04-25 02:51:00,56.4,49.6,29.94,WNW,292,1.7,1.7,78,0.00,,OVC,0.00,VWS V14.00,2013-04-25 06:51:00,
2013-04-25 02:56:00,56.6,47.3,29.94,WNW,292,4.0,4.0,71,0.00,,OVC,0.00,VWS V14.00,2013-04-25 06:56:00,
2013-04-25 03:01:00,56.8,46.0,29.95,WSW,248,0.0,0.0,67,0.00,,OVC,0.00,VWS V14.00,2013-04-25 07:01:00,
2013-04-25 03:06:00,57.0,44.5,29.95,West,270,0.6,0.6,63,0.00,,OVC,0.00,VWS V14.00,2013-04-25 07:06:00,
2013-04-25 03:11:00,57.0,44.1,29.95,West,270,7.6,7.6,62,0.00,,OVC,0.00,VWS V14.00,2013-04-25 07:11:00,
2013-04-25 03:16:00,56.8,43.9,29.96,North,0,5.3,5.3,62,0.00,,OVC,0.00,VWS V14.00,2013-04-25 07:16:00,
2013-04-25 03:21:00,56.8,43.9,29.96,WNW,292,9.6,9.6,62,0.00,,OVC,0.00,VWS V14.00,2013-04-25 07:21:00,
2013-04-25 03:26:00,56.4,43.1,29.97,NW,315,5.8,5.8,61,0.00,,OVC,0.00,VWS V14.00,2013-04-25 07:26:00,
2013-04-25 03:31:00,56.4,43.1,29.98,NW,315,7.3,7.3,61,0.00,,OVC,0.00,VWS V14.00,2013-04-25 07:31:00,
2013-04-25 03:35:00,56.3,42.6,29.98,WSW,248,6.2,6.2,60,0.00,,OVC,0.00,VWS V14.00,2013-04-25 07:35:00,
2013-04-25 03:40:00,55.9,41.8,29.98,West,270,6.9,6.9,59,0.00,,OVC,0.00,VWS V14.00,2013-04-25 07:40:00,
2013-04-25 03:45:00,55.7,41.6,29.98,NNE,22,3.3,3.3,59,0.00,,OVC,0.00,VWS V14.00,2013-04-25 07:45:00,
2013-04-25 03:50:00,55.4,41.8,29.98,ENE,68,1.5,1.5,60,0.00,,OVC,0.00,VWS V14.00,2013-04-25 07:50:00,
2013-04-25 03:55:00,55.2,41.1,29.98,WNW,292,3.8,3.8,59,0.00,,OVC,0.00,VWS V14.00,2013-04-25 07:55:00,
2013-04-25 04:00:00,54.8,41.2,29.98,NW,315,0.6,0.6,60,0.00,,OVC,0.00,VWS V14.00,2013-04-25 08:00:00,
2013-04-25 04:05:00,54.5,40.9,29.99,WNW,292,6.7,6.7,60,0.00,,OVC,0.00,VWS V14.00,2013-04-25 08:05:00,
2013-04-25 04:10:00,54.3,40.7,30.00,West,270,2.4,2.4,60,0.00,,OVC,0.00,VWS V14.00,2013-04-25 08:10:00,
2013-04-25 04:15:00,54.1,40.5,30.00,NW,315,6.4,6.4,60,0.00,,OVC,0.00,VWS V14.00,2013-04-25 08:15:00,
2013-04-25 04:20:00,53.7,39.7,30.01,NE,45,12.3,12.3,59,0.00,,OVC,0.00,VWS V14.00,2013-04-25 08:20:00,
2013-04-25 04:25:00,53.4,39.0,30.01,NNE,22,2.0,2.0,58,0.00,,OVC,0.00,VWS V14.00,2013-04-25 08:25:00,
2013-04-25 04:30:00,53.2,38.8,30.01,NNW,338,2.6,2.6,58,0.00,,OVC,0.00,VWS V14.00,2013-04-25 08:30:00,
2013-04-25 04:35:00,52.8,38.9,30.01,WNW,292,9.3,9.3,59,0.00,,OVC,0.00,VWS V14.00,2013-04-25 08:35:00,
2013-04-25 04:40:00,52.7,38.8,30.02,WNW,292,6.9,6.9,59,0.00,,OVC,0.00,VWS V14.00,2013-04-25 08:40:00,
2013-04-25 04:45:00,52.5,38.6,30.02,NE,45,6.7,6.7,59,0.00,,OVC,0.00,VWS V14.00,2013-04-25 08:45:00,
2013-04-25 04:50:00,52.3,38.4,30.02,West,270,7.3,7.3,59,0.00,,OVC,0.00,VWS V14.00,2013-04-25 08:50:00,
2013-04-25 04:55:00,52.1,38.2,30.02,WNW,292,3.5,3.5,59,0.00,,OVC,0.00,VWS V14.00,2013-04-25 08:55:00,
2013-04-25 05:00:00,51.9,38.5,30.02,WNW,292,2.2,2.2,60,0.00,,OVC,0.00,VWS V14.00,2013-04-25 09:00:00,
2013-04-25 05:05:00,51.6,38.2,30.03,WNW,292,6.0,6.0,60,0.00,,OVC,0.00,VWS V14.00,2013-04-25 09:05:00,
2013-04-25 05:10:00,51.4,38.0,30.03,WSW,248,6.9,6.9,60,0.00,,OVC,0.00,VWS V14.00,2013-04-25 09:10:00,
2013-04-25 05:15:00,51.4,38.4,30.03,NNE,22,5.1,5.1,61,0.00,,OVC,0.00,VWS V14.00,2013-04-25 09:15:00,
2013-04-25 05:20:00,51.2,37.8,30.04,NW,315,2.0,2.0,60,0.00,,OVC,0.00,VWS V14.00,2013-04-25 09:20:00,
2013-04-25 05:25:00,51.0,38.0,30.04,NNW,338,4.4,4.4,61,0.00,,OVC,0.00,VWS V14.00,2013-04-25 09:25:00,
2013-04-25 05:30:00,50.9,38.0,30.04,WSW,248,9.3,9.3,61,0.00,,OVC,0.00,VWS V14.00,2013-04-25 09:30:00,
2013-04-25 05:35:00,50.7,38.6,30.06,NNW,338,14.0,14.0,63,0.00,,OVC,0.00,VWS V14.00,2013-04-25 09:35:00,
2013-04-25 05:40:00,50.1,38.8,30.05,West,270,0.6,0.6,65,0.00,,OVC,0.00,VWS V14.00,2013-04-25 09:40:00,
2013-04-25 05:45:00,49.6,39.1,30.07,NW,315,0.0,0.0,67,0.00,,OVC,0.00,VWS V14.00,2013-04-25 09:45:00,
2013-04-25 05:50:00,49.2,39.1,30.08,South,180,0.0,0.0,68,0.00,,OVC,0.00,VWS V14.00,2013-04-25 09:50:00,
2013-04-25 05:55:00,48.9,39.6,30.08,WNW,292,5.5,5.5,70,0.00,,OVC,0.00,VWS V14.00,2013-04-25 09:55:00,
2013-04-25 06:00:00,48.7,39.4,30.08,NW,315,0.0,0.0,70,0.00,,OVC,0.00,VWS V14.00,2013-04-25 10:00:00,
2013-04-25 06:05:00,48.3,39.3,30.08,WNW,292,0.0,0.0,71,0.00,,OVC,0.00,VWS V14.00,2013-04-25 10:05:00,
2013-04-25 06:10:00,48.3,39.7,30.08,WNW,292,0.0,0.0,72,0.00,,OVC,0.00,VWS V14.00,2013-04-25 10:10:00,
2013-04-25 06:15:00,48.0,39.4,30.08,NNE,22,0.0,0.0,72,0.00,,OVC,0.00,VWS V14.00,2013-04-25 10:15:00,
2013-04-25 06:20:00,48.0,39.4,30.08,NE,45,1.5,1.5,72,0.00,,OVC,0.00,VWS V14.00,2013-04-25 10:20:00,
2013-04-25 06:25:00,47.8,39.2,30.09,NW,315,0.0,1.1,72,0.00,,OVC,0.00,VWS V14.00,2013-04-25 10:25:00,
2013-04-25 06:30:00,47.8,38.9,30.09,NW,315,1.7,1.7,71,0.00,,OVC,0.00,VWS V14.00,2013-04-25 10:30:00,
2013-04-25 06:35:00,48.0,38.7,30.10,NE,45,2.2,2.2,70,0.00,,OVC,0.00,VWS V14.00,2013-04-25 10:35:00,
2013-04-25 06:40:00,48.0,38.3,30.11,NW,315,0.0,3.5,69,0.00,,OVC,0.00,VWS V14.00,2013-04-25 10:40:00,
2013-04-25 06:45:00,48.0,37.6,30.13,North,0,0.0,0.0,67,0.00,,OVC,0.00,VWS V14.00,2013-04-25 10:45:00,
2013-04-25 06:50:00,48.3,37.5,30.13,NW,315,0.0,0.0,66,0.00,,OVC,0.00,VWS V14.00,2013-04-25 10:50:00,
2013-04-25 06:55:00,48.7,37.1,30.13,NNE,22,0.0,0.0,64,0.00,,OVC,0.00,VWS V14.00,2013-04-25 10:55:00,
2013-04-25 07:00:00,48.7,36.7,30.12,NNE,22,5.1,8.2,63,0.00,,OVC,0.00,VWS V14.00,2013-04-25 11:00:00,
2013-04-25 07:05:00,48.9,36.5,30.12,NW,315,7.1,7.1,62,0.00,,OVC,0.00,VWS V14.00,2013-04-25 11:05:00,
2013-04-25 07:10:00,49.2,36.3,30.14,West,270,0.8,0.8,61,0.00,,OVC,0.00,VWS V14.00,2013-04-25 11:10:00,
2013-04-25 07:15:00,49.2,35.9,30.14,NW,315,0.0,0.0,60,0.00,,OVC,0.00,VWS V14.00,2013-04-25 11:15:00,
2013-04-25 07:20:00,49.1,35.4,30.14,NNW,338,11.1,11.1,59,0.00,,OVC,0.00,VWS V14.00,2013-04-25 11:20:00,
2013-04-25 07:25:00,51.6,37.8,30.14,North,0,0.2,0.2,59,0.00,,OVC,0.00,VWS V14.00,2013-04-25 11:25:00,
2013-04-25 07:30:00,55.5,39.1,30.14,NNW,338,0.0,0.0,54,0.00,,OVC,0.00,VWS V14.00,2013-04-25 11:30:00,
2013-04-25 07:35:00,56.8,38.4,30.15,WNW,292,5.3,5.3,50,0.00,,OVC,0.00,VWS V14.00,2013-04-25 11:35:00,
2013-04-25 07:40:00,60.0,38.0,30.16,NNW,338,6.9,6.9,44,0.00,,OVC,0.00,VWS V14.00,2013-04-25 11:40:00,
2013-04-25 07:45:00,55.9,36.0,30.17,NNW,338,0.0,0.0,47,0.00,,OVC,0.00,VWS V14.00,2013-04-25 11:45:00,
2013-04-25 07:50:00,53.4,34.7,30.17,North,0,5.3,5.3,49,0.00,,OVC,0.00,VWS V14.00,2013-04-25 11:50:00,
2013-04-25 07:55:00,52.3,34.7,30.17,NNW,338,16.3,16.3,51,0.00,,OVC,0.00,VWS V14.00,2013-04-25 11:55:00,
2013-04-25 08:00:00,51.6,34.6,30.18,North,0,5.1,5.1,52,0.00,,OVC,0.00,VWS V14.00,2013-04-25 12:00:00,
2013-04-25 08:05:00,55.9,37.0,30.18,NNE,22,8.5,8.5,49,0.00,,OVC,0.00,VWS V14.00,2013-04-25 12:05:00,
2013-04-25 08:10:00,58.8,38.6,30.18,NNE,22,2.4,2.4,47,0.00,,OVC,0.00,VWS V14.00,2013-04-25 12:10:00,
2013-04-25 08:15:00,62.0,39.3,30.18,NNE,22,0.6,0.6,43,0.00,,OVC,0.00,VWS V14.00,2013-04-25 12:15:00,
2013-04-25 08:20:00,63.1,37.1,30.17,NNE,22,8.9,8.9,38,0.00,,OVC,0.00,VWS V14.00,2013-04-25 12:20:00,
2013-04-25 08:25:00,62.4,37.8,30.17,NNE,22,4.6,4.6,40,0.00,,OVC,0.00,VWS V14.00,2013-04-25 12:25:00,
2013-04-25 08:30:00,63.1,39.0,30.17,NW,315,0.0,0.0,41,0.00,,OVC,0.00,VWS V14.00,2013-04-25 12:30:00,
2013-04-25 08:35:00,65.3,40.4,30.18,WNW,292,0.0,0.0,40,0.00,,OVC,0.00,VWS V14.00,2013-04-25 12:35:00,
2013-04-25 08:40:00,67.2,40.8,30.18,WNW,292,0.0,0.0,38,0.00,,OVC,0.00,VWS V14.00,2013-04-25 12:40:00,
2013-04-25 08:45:00,68.1,40.2,30.18,NNE,22,2.6,2.6,36,0.00,,OVC,0.00,VWS V14.00,2013-04-25 12:45:00,
2013-04-25 08:50:00,67.6,39.7,30.18,West,270,5.5,5.5,36,0.00,,OVC,0.00,VWS V14.00,2013-04-25 12:50:00,
2013-04-25 08:55:00,67.1,38.6,30.17,NNE,22,4.9,4.9,35,0.00,,OVC,0.00,VWS V14.00,2013-04-25 12:55:00,
2013-04-25 09:00:00,66.0,38.3,30.17,North,0,1.3,1.3,36,0.00,,OVC,0.00,VWS V14.00,2013-04-25 13:00:00,
2013-04-25 09:05:00,65.8,38.8,30.17,North,0,9.3,9.3,37,0.00,,OVC,0.00,VWS V14.00,2013-04-25 13:05:00,
2013-04-25 09:10:00,65.8,38.1,30.18,NE,45,4.4,4.4,36,0.00,,OVC,0.00,VWS V14.00,2013-04-25 13:10:00,
2013-04-25 09:15:00,64.2,36.7,30.18,West,270,2.2,2.2,36,0.00,,OVC,0.00,VWS V14.00,2013-04-25 13:15:00,
2013-04-25 09:20:00,65.3,38.4,30.18,NNE,22,4.9,4.9,37,0.00,,OVC,0.00,VWS V14.00,2013-04-25 13:20:00,
2013-04-25 09:25:00,65.8,38.8,30.18,NNE,22,6.0,6.0,37,0.00,,OVC,0.00,VWS V14.00,2013-04-25 13:25:00,
2013-04-25 09:30:00,66.5,40.1,30.18,West,270,1.7,1.7,38,0.00,,OVC,0.00,VWS V14.00,2013-04-25 13:30:00,
2013-04-25 09:35:00,66.7,38.9,30.18,North,0,10.7,10.7,36,0.00,,OVC,0.00,VWS V14.00,2013-04-25 13:35:00,
2013-04-25 09:40:00,65.4,37.8,30.18,NNE,22,0.0,0.0,36,0.00,,OVC,0.00,VWS V14.00,2013-04-25 13:40:00,
2013-04-25 09:45:00,65.3,37.7,30.18,NE,45,0.0,0.0,36,0.00,,OVC,0.00,VWS V14.00,2013-04-25 13:45:00,
2013-04-25 09:50:00,65.4,36.3,30.18,NNE,22,6.0,6.0,34,0.00,,OVC,0.00,VWS V14.00,2013-04-25 13:50:00,
2013-04-25 09:55:00,65.1,36.8,30.18,NNE,22,2.4,2.4,35,0.00,,OVC,0.00,VWS V14.00,2013-04-25 13:55:00,
2013-04-25 10:00:00,64.4,36.2,30.18,WNW,292,3.1,3.1,35,0.00,,OVC,0.00,VWS V14.00,2013-04-25 14:00:00,
2013-04-25 10:05:00,64.0,35.8,30.18,NNE,22,8.2,8.2,35,0.00,,OVC,0.00,VWS V14.00,2013-04-25 14:05:00,
2013-04-25 10:10:00,63.5,35.4,30.18,NNE,22,4.2,4.2,35,0.00,,OVC,0.00,VWS V14.00,2013-04-25 14:10:00,
2013-04-25 10:15:00,63.3,35.2,30.18,NNW,338,3.1,3.1,35,0.00,,OVC,0.00,VWS V14.00,2013-04-25 14:15:00,
2013-04-25 10:20:00,62.9,34.8,30.19,NE,45,11.8,11.8,35,0.00,,OVC,0.00,VWS V14.00,2013-04-25 14:20:00,
2013-04-25 10:25:00,63.5,36.8,30.19,WNW,292,0.0,0.0,37,0.00,,OVC,0.00,VWS V14.00,2013-04-25 14:25:00,
2013-04-25 10:30:00,65.1,36.8,30.19,North,0,12.7,12.7,35,0.00,,OVC,0.00,VWS V14.00,2013-04-25 14:30:00,
2013-04-25 10:35:00,64.7,35.7,30.19,North,0,9.6,9.6,34,0.00,,OVC,0.00,VWS V14.00,2013-04-25 14:35:00,
2013-04-25 10:40:00,64.2,35.3,30.18,North,0,10.0,10.0,34,0.00,,OVC,0.00,VWS V14.00,2013-04-25 14:40:00,
2013-04-25 10:45:00,64.9,35.1,30.19,East,90,3.1,3.1,33,0.00,,OVC,0.00,VWS V14.00,2013-04-25 14:45:00,
2013-04-25 10:50:00,64.9,35.9,30.19,WSW,248,4.6,4.6,34,0.00,,OVC,0.00,VWS V14.00,2013-04-25 14:50:00,
2013-04-25 10:55:00,65.3,35.5,30.19,WNW,292,1.1,1.1,33,0.00,,OVC,0.00,VWS V14.00,2013-04-25 14:55:00,
2013-04-25 11:00:00,65.4,36.3,30.19,NNE,22,4.9,4.9,34,0.00,,OVC,0.00,VWS V14.00,2013-04-25 15:00:00,
2013-04-25 11:05:00,65.1,36.8,30.19,WSW,248,0.0,0.0,35,0.00,,OVC,0.00,VWS V14.00,2013-04-25 15:05:00,
2013-04-25 11:10:00,66.0,37.6,30.19,West,270,2.6,2.6,35,0.00,,OVC,0.00,VWS V14.00,2013-04-25 15:10:00,
2013-04-25 11:15:00,66.5,38.0,30.19,West,270,3.1,3.1,35,0.00,,OVC,0.00,VWS V14.00,2013-04-25 15:15:00,
2013-04-25 11:20:00,66.9,37.7,30.19,WNW,292,0.0,0.0,34,0.00,,OVC,0.00,VWS V14.00,2013-04-25 15:20:00,
2013-04-25 11:25:00,67.1,37.1,30.20,WSW,248,3.8,3.8,33,0.00,,OVC,0.00,VWS V14.00,2013-04-25 15:25:00,
2013-04-25 11:30:00,67.2,37.2,30.19,SW,225,2.2,2.2,33,0.00,,OVC,0.00,VWS V14.00,2013-04-25 15:30:00,
2013-04-25 11:35:00,67.6,39.0,30.20,WNW,292,1.7,1.7,35,0.00,,OVC,0.00,VWS V14.00,2013-04-25 15:35:00,
2013-04-25 11:40:00,68.1,37.9,30.20,NNE,22,2.4,2.4,33,0.00,,OVC,0.00,VWS V14.00,2013-04-25 15:40:00,
2013-04-25 11:45:00,67.1,37.1,30.20,NE,45,5.3,5.3,33,0.00,,OVC,0.00,VWS V14.00,2013-04-25 15:45:00,
2013-04-25 11:50:00,66.7,37.5,30.20,North,0,7.8,7.8,34,0.00,,OVC,0.00,VWS V14.00,2013-04-25 15:50:00,
2013-04-25 11:55:00,66.5,37.3,30.20,NE,45,0.6,0.6,34,0.00,,OVC,0.00,VWS V14.00,2013-04-25 15:55:00,
2013-04-25 12:00:00,67.1,37.8,30.20,West,270,0.6,0.6,34,0.00,,OVC,0.00,VWS V14.00,2013-04-25 16:00:00,
2013-04-25 12:05:00,67.6,39.0,30.20,West,270,0.0,0.0,35,0.00,,OVC,0.00,VWS V14.00,2013-04-25 16:05:00,
2013-04-25 12:10:00,68.5,38.3,30.20,WNW,292,3.5,3.5,33,0.00,,OVC,0.00,VWS V14.00,2013-04-25 16:10:00,
2013-04-25 12:15:00,68.1,37.2,30.20,NNW,338,2.2,2.2,32,0.00,,OVC,0.00,VWS V14.00,2013-04-25 16:15:00,
2013-04-25 12:20:00,67.8,37.7,30.19,SSW,202,3.3,3.3,33,0.00,,OVC,0.00,VWS V14.00,2013-04-25 16:20:00,
2013-04-25 12:25:00,67.8,36.9,30.20,WNW,292,0.0,0.0,32,0.00,,OVC,0.00,VWS V14.00,2013-04-25 16:25:00,
2013-04-25 12:30:00,67.8,36.9,30.19,NNE,22,1.5,1.5,32,0.00,,OVC,0.00,VWS V14.00,2013-04-25 16:30:00,
2013-04-25 12:35:00,67.1,37.1,30.19,SW,225,3.3,3.3,33,0.00,,OVC,0.00,VWS V14.00,2013-04-25 16:35:00,
2013-04-25 12:40:00,66.9,36.9,30.19,West,270,0.0,0.0,33,0.00,,OVC,0.00,VWS V14.00,2013-04-25 16:40:00,
2013-04-25 12:45:00,67.1,37.1,30.19,North,0,1.7,1.7,33,0.00,,OVC,0.00,VWS V14.00,2013-04-25 16:45:00,
2013-04-25 12:50:00,67.1,36.3,30.18,NNE,22,2.0,2.0,32,0.00,,OVC,0.00,VWS V14.00,2013-04-25 16:50:00,
2013-04-25 12:55:00,66.2,35.5,30.19,NNE,22,0.2,0.2,32,0.00,,OVC,0.00,VWS V14.00,2013-04-25 16:55:00,
2013-04-25 13:00:00,66.0,36.1,30.18,NNW,338,0.0,0.0,33,0.00,,OVC,0.00,VWS V14.00,2013-04-25 17:00:00,
2013-04-25 13:05:00,66.9,35.3,30.18,SW,225,1.5,1.5,31,0.00,,OVC,0.00,VWS V14.00,2013-04-25 17:05:00,
2013-04-25 13:10:00,66.0,34.5,30.18,NE,45,3.8,3.8,31,0.00,,OVC,0.00,VWS V14.00,2013-04-25 17:10:00,
2013-04-25 13:15:00,66.3,35.6,30.19,NNE,22,2.9,2.9,32,0.00,,OVC,0.00,VWS V14.00,2013-04-25 17:15:00,
2013-04-25 13:20:00,66.9,36.1,30.18,ENE,68,4.4,4.4,32,0.00,,OVC,0.00,VWS V14.00,2013-04-25 17:20:00,
2013-04-25 13:25:00,66.5,35.0,30.18,NNE,22,8.0,8.0,31,0.00,,OVC,0.00,VWS V14.00,2013-04-25 17:25:00,
2013-04-25 13:30:00,66.0,35.3,30.18,WNW,292,4.0,4.0,32,0.00,,OVC,0.00,VWS V14.00,2013-04-25 17:30:00,
2013-04-25 13:35:00,66.7,37.5,30.18,WNW,292,6.0,6.0,34,0.00,,OVC,0.00,VWS V14.00,2013-04-25 17:35:00,
2013-04-25 13:40:00,67.8,37.7,30.18,West,270,9.1,9.1,33,0.00,,OVC,0.00,VWS V14.00,2013-04-25 17:40:00,
2013-04-25 13:45:00,68.1,37.2,30.18,ENE,68,5.1,5.1,32,0.00,,OVC,0.00,VWS V14.00,2013-04-25 17:45:00,
2013-04-25 13:50:00,67.2,37.2,30.18,ENE,68,2.9,2.9,33,0.00,,OVC,0.00,VWS V14.00,2013-04-25 17:50:00,
2013-04-25 13:55:00,65.4,37.8,30.18,ENE,68,7.6,7.6,36,0.00,,OVC,0.00,VWS V14.00,2013-04-25 17:55:00,
2013-04-25 14:00:00,63.6,36.2,30.18,SE,135,4.2,4.2,36,0.00,,OVC,0.00,VWS V14.00,2013-04-25 18:00:00,
2013-04-25 14:05:00,63.1,36.4,30.18,SSW,202,1.1,1.1,37,0.00,,OVC,0.00,VWS V14.00,2013-04-25 18:05:00,
2013-04-25 14:10:00,62.9,36.2,30.19,SE,135,3.5,3.5,37,0.00,,OVC,0.00,VWS V14.00,2013-04-25 18:10:00,
2013-04-25 14:15:00,63.3,35.9,30.18,SSE,158,6.7,6.7,36,0.00,,OVC,0.00,VWS V14.00,2013-04-25 18:15:00,
2013-04-25 14:20:00,62.4,35.1,30.18,SE,135,0.4,0.4,36,0.00,,OVC,0.00,VWS V14.00,2013-04-25 18:20:00,
2013-04-25 14:25:00,61.5,34.3,30.18,SE,135,6.4,6.4,36,0.00,,OVC,0.00,VWS V14.00,2013-04-25 18:25:00,
2013-04-25 14:30:00,60.8,33.7,30.18,SE,135,7.1,7.1,36,0.00,,OVC,0.00,VWS V14.00,2013-04-25 18:30:00,
2013-04-25 14:35:00,60.6,34.9,30.18,SE,135,2.4,2.4,38,0.00,,OVC,0.00,VWS V14.00,2013-04-25 18:35:00,
2013-04-25 14:40:00,60.6,34.9,30.18,SE,135,0.0,0.0,38,0.00,,OVC,0.00,VWS V14.00,2013-04-25 18:40:00,
2013-04-25 14:45:00,60.6,34.2,30.18,SE,135,4.2,4.2,37,0.00,,OVC,0.00,VWS V14.00,2013-04-25 18:45:00,
2013-04-25 14:50:00,60.6,34.9,30.18,ESE,112,0.0,0.0,38,0.00,,OVC,0.00,VWS V14.00,2013-04-25 18:50:00,
2013-04-25 14:55:00,60.6,35.5,30.18,ENE,68,0.0,0.0,39,0.00,,OVC,0.00,VWS V14.00,2013-04-25 18:55:00,
2013-04-25 15:00:00,60.6,34.2,30.18,East,90,6.4,6.4,37,0.00,,OVC,0.00,VWS V14.00,2013-04-25 19:00:00,
2013-04-25 15:05:00,60.0,34.3,30.19,SSW,202,0.4,0.4,38,0.00,,OVC,0.00,VWS V14.00,2013-04-25 19:05:00,
2013-04-25 15:10:00,59.9,34.2,30.18,ESE,112,5.1,5.1,38,0.00,,OVC,0.00,VWS V14.00,2013-04-25 19:10:00,
2013-04-25 15:15:00,59.3,33.7,30.18,SSW,202,0.0,0.0,38,0.00,,OVC,0.00,VWS V14.00,2013-04-25 19:15:00,
2013-04-25 15:20:00,59.5,33.9,30.18,SSE,158,0.0,0.0,38,0.00,,OVC,0.00,VWS V14.00,2013-04-25 19:20:00,
2013-04-25 15:25:00,59.7,33.4,30.18,SSE,158,9.6,9.6,37,0.00,,OVC,0.00,VWS V14.00,2013-04-25 19:25:00,
2013-04-25 15:30:00,59.7,34.1,30.18,SSE,158,5.5,5.5,38,0.00,,OVC,0.00,VWS V14.00,2013-04-25 19:30:00,
2013-04-25 15:35:00,59.7,34.7,30.18,SSW,202,1.1,1.1,39,0.00,,OVC,0.00,VWS V14.00,2013-04-25 19:35:00,
2013-04-25 15:40:00,59.5,34.5,30.18,South,180,3.3,3.3,39,0.00,,OVC,0.00,VWS V14.00,2013-04-25 19:40:00,
2013-04-25 15:45:00,59.7,34.7,30.18,SSW,202,0.0,0.0,39,0.00,,OVC,0.00,VWS V14.00,2013-04-25 19:45:00,
2013-04-25 15:50:00,59.7,34.1,30.18,SE,135,2.2,2.2,38,0.00,,OVC,0.00,VWS V14.00,2013-04-25 19:50:00,
2013-04-25 15:55:00,59.3,33.7,30.18,SSW,202,6.9,6.9,38,0.00,,OVC,0.00,VWS V14.00,2013-04-25 19:55:00,
2013-04-25 16:00:00,58.8,33.3,30.18,South,180,1.3,1.3,38,0.00,,OVC,0.00,VWS V14.00,2013-04-25 20:00:00,
2013-04-25 16:05:00,58.8,33.9,30.18,WSW,248,3.3,3.3,39,0.00,,OVC,0.00,VWS V14.00,2013-04-25 20:05:00,
2013-04-25 16:10:00,58.8,34.5,30.18,SE,135,7.3,7.3,40,0.00,,OVC,0.00,VWS V14.00,2013-04-25 20:10:00,
2013-04-25 16:15:00,58.6,34.4,30.18,SSE,158,0.0,0.0,40,0.00,,OVC,0.00,VWS V14.00,2013-04-25 20:15:00,
2013-04-25 16:20:00,58.6,34.4,30.18,SSW,202,1.3,1.3,40,0.00,,OVC,0.00,VWS V14.00,2013-04-25 20:20:00,
2013-04-25 16:25:00,58.1,33.9,30.18,SE,135,3.3,3.3,40,0.00,,OVC,0.00,VWS V14.00,2013-04-25 20:25:00,
2013-04-25 16:30:00,58.2,34.0,30.18,SSE,158,6.2,6.2,40,0.00,,OVC,0.00,VWS V14.00,2013-04-25 20:30:00,
2013-04-25 16:35:00,58.2,34.0,30.18,SSW,202,0.0,0.0,40,0.00,,OVC,0.00,VWS V14.00,2013-04-25 20:35:00,
2013-04-25 16:40:00,58.1,34.5,30.18,South,180,2.0,2.0,41,0.00,,OVC,0.00,VWS V14.00,2013-04-25 20:40:00,
2013-04-25 16:45:00,58.1,33.9,30.18,WSW,248,0.8,0.8,40,0.00,,OVC,0.00,VWS V14.00,2013-04-25 20:45:00,
2013-04-25 16:50:00,57.5,32.8,30.18,South,180,8.5,8.5,39,0.00,,OVC,0.00,VWS V14.00,2013-04-25 20:50:00,
2013-04-25 16:55:00,57.3,33.8,30.18,SSE,158,1.3,1.3,41,0.00,,OVC,0.00,VWS V14.00,2013-04-25 20:55:00,
2013-04-25 17:00:00,57.0,33.5,30.18,SE,135,8.2,8.2,41,0.00,,OVC,0.00,VWS V14.00,2013-04-25 21:00:00,
2013-04-25 17:05:00,57.0,33.5,30.18,South,180,4.2,4.2,41,0.00,,OVC,0.00,VWS V14.00,2013-04-25 21:05:00,
2013-04-25 17:10:00,57.0,34.2,30.19,SSE,158,0.0,0.0,42,0.00,,OVC,0.00,VWS V14.00,2013-04-25 21:10:00,
2013-04-25 17:15:00,57.0,34.8,30.18,SSW,202,2.2,2.2,43,0.00,,OVC,0.00,VWS V14.00,2013-04-25 21:15:00,
2013-04-25 17:20:00,56.6,34.4,30.19,SSE,158,1.7,1.7,43,0.00,,OVC,0.00,VWS V14.00,2013-04-25 21:20:00,
2013-04-25 17:25:00,56.3,34.7,30.19,SSE,158,0.0,0.0,44,0.00,,OVC,0.00,VWS V14.00,2013-04-25 21:25:00,
2013-04-25 17:30:00,56.1,34.5,30.19,South,180,2.6,2.6,44,0.00,,OVC,0.00,VWS V14.00,2013-04-25 21:30:00,
2013-04-25 17:35:00,55.9,34.3,30.19,SSE,158,0.0,0.0,44,0.00,,OVC,0.00,VWS V14.00,2013-04-25 21:35:00,
2013-04-25 17:40:00,55.9,34.9,30.19,WSW,248,0.0,0.0,45,0.00,,OVC,0.00,VWS V14.00,2013-04-25 21:40:00,
2013-04-25 17:45:00,55.9,35.4,30.19,SSW,202,0.0,0.0,46,0.00,,OVC,0.00,VWS V14.00,2013-04-25 21:45:00,
2013-04-25 17:50:00,55.9,34.3,30.19,ESE,112,0.0,0.0,44,0.00,,OVC,0.00,VWS V14.00,2013-04-25 21:50:00,
2013-04-25 17:55:00,55.9,34.9,30.19,SSE,158,5.5,5.5,45,0.00,,OVC,0.00,VWS V14.00,2013-04-25 21:55:00,
2013-04-25 18:00:00,55.9,35.4,30.20,SW,225,3.3,3.3,46,0.00,,OVC,0.00,VWS V14.00,2013-04-25 22:00:00,
2013-04-25 18:05:00,55.7,34.7,30.20,SSW,202,0.8,0.8,45,0.00,,OVC,0.00,VWS V14.00,2013-04-25 22:05:00,
2013-04-25 18:10:00,55.7,35.3,30.19,WSW,248,3.5,3.5,46,0.00,,OVC,0.00,VWS V14.00,2013-04-25 22:10:00,
2013-04-25 18:14:00,55.5,34.5,30.20,SSW,202,3.8,3.8,45,0.00,,OVC,0.00,VWS V14.00,2013-04-25 22:14:00,
2013-04-25 18:19:00,55.2,34.8,30.20,SSE,158,0.0,0.0,46,0.00,,OVC,0.00,VWS V14.00,2013-04-25 22:19:00,
2013-04-25 18:24:00,55.0,35.2,30.20,SSW,202,1.1,1.1,47,0.00,,OVC,0.00,VWS V14.00,2013-04-25 22:24:00,
2013-04-25 18:29:00,55.0,35.7,30.20,SW,225,0.0,0.0,48,0.00,,OVC,0.00,VWS V14.00,2013-04-25 22:29:00,
2013-04-25 18:34:00,54.8,35.5,30.20,SW,225,7.1,7.1,48,0.00,,OVC,0.00,VWS V14.00,2013-04-25 22:34:00,
2013-04-25 18:39:00,54.3,35.0,30.20,SSE,158,2.2,2.2,48,0.00,,OVC,0.00,VWS V14.00,2013-04-25 22:39:00,
2013-04-25 18:44:00,54.1,35.4,30.21,SSE,158,0.0,0.0,49,0.00,,OVC,0.00,VWS V14.00,2013-04-25 22:44:00,
2013-04-25 18:49:00,53.7,35.5,30.21,SW,225,0.0,0.0,50,0.00,,OVC,0.00,VWS V14.00,2013-04-25 22:49:00,
2013-04-25 18:54:00,53.6,35.4,30.21,WSW,248,4.9,4.9,50,0.00,,OVC,0.00,VWS V14.00,2013-04-25 22:54:00,
2013-04-25 18:59:00,53.2,35.6,30.21,WSW,248,0.0,0.0,51,0.00,,OVC,0.00,VWS V14.00,2013-04-25 22:59:00,
2013-04-25 19:04:00,53.2,36.0,30.21,SW,225,1.3,1.3,52,0.00,,OVC,0.00,VWS V14.00,2013-04-25 23:04:00,
2013-04-25 19:09:00,52.8,36.2,30.21,SW,225,0.6,0.6,53,0.00,,OVC,0.00,VWS V14.00,2013-04-25 23:09:00,
2013-04-25 19:14:00,52.5,36.3,30.21,SW,225,0.0,0.0,54,0.00,,OVC,0.00,VWS V14.00,2013-04-25 23:14:00,
2013-04-25 19:19:00,52.3,36.6,30.21,WSW,248,5.3,5.3,55,0.00,,OVC,0.00,VWS V14.00,2013-04-25 23:19:00,
2013-04-25 19:24:00,52.1,36.9,30.21,SW,225,0.8,0.8,56,0.00,,OVC,0.00,VWS V14.00,2013-04-25 23:24:00,
2013-04-25 19:29:00,51.6,36.4,30.21,WSW,248,0.0,0.0,56,0.00,,OVC,0.00,VWS V14.00,2013-04-25 23:29:00,
2013-04-25 19:34:00,51.6,36.9,30.21,South,180,1.3,1.3,57,0.00,,OVC,0.00,VWS V14.00,2013-04-25 23:34:00,
2013-04-25 19:39:00,51.2,37.0,30.21,WSW,248,3.8,3.8,58,0.00,,OVC,0.00,VWS V14.00,2013-04-25 23:39:00,
2013-04-25 19:44:00,50.9,37.1,30.21,SW,225,0.8,0.8,59,0.00,,OVC,0.00,VWS V14.00,2013-04-25 23:44:00,
2013-04-25 19:49:00,50.7,37.3,30.21,SSW,202,0.4,0.4,60,0.00,,OVC,0.00,VWS V14.00,2013-04-25 23:49:00,
2013-04-25 19:54:00,50.5,37.6,30.21,SW,225,0.0,0.0,61,0.00,,OVC,0.00,VWS V14.00,2013-04-25 23:54:00,
2013-04-25 19:59:00,50.1,37.2,30.21,SW,225,0.0,0.0,61,0.00,,OVC,0.00,VWS V14.00,2013-04-25 23:59:00,
2013-04-25 20:04:00,49.8,37.3,30.22,SW,225,0.0,0.0,62,0.00,,OVC,0.00,VWS V14.00,2013-04-26 00:04:00,
2013-04-25 20:09:00,49.8,37.3,30.22,SW,225,4.0,4.0,62,0.00,,OVC,0.00,VWS V14.00,2013-04-26 00:09:00,
2013-04-25 20:14:00,49.6,37.1,30.22,WSW,248,2.0,2.0,62,0.00,,OVC,0.00,VWS V14.00,2013-04-26 00:14:00,
2013-04-25 20:19:00,49.4,37.3,30.22,West,270,2.0,2.0,63,0.00,,OVC,0.00,VWS V14.00,2013-04-26 00:19:00,
2013-04-25 20:24:00,49.2,36.8,30.22,SW,225,4.9,4.9,62,0.00,,OVC,0.00,VWS V14.00,2013-04-26 00:24:00,
2013-04-25 20:29:00,49.2,36.8,30.22,SW,225,1.5,1.5,62,0.00,,OVC,0.00,VWS V14.00,2013-04-26 00:29:00,
2013-04-25 20:34:00,49.1,36.7,30.23,WSW,248,0.0,0.0,62,0.00,,OVC,0.00,VWS V14.00,2013-04-26 00:34:00,
2013-04-25 20:39:00,48.9,36.9,30.23,SW,225,1.1,1.1,63,0.00,,OVC,0.00,VWS V14.00,2013-04-26 00:39:00,
2013-04-25 20:44:00,48.7,36.7,30.23,SW,225,0.0,0.0,63,0.00,,OVC,0.00,VWS V14.00,2013-04-26 00:44:00,
2013-04-25 20:49:00,48.7,36.7,30.23,WSW,248,0.8,0.8,63,0.00,,OVC,0.00,VWS V14.00,2013-04-26 00:49:00,
2013-04-25 20:54:00,48.5,36.5,30.24,SW,225,0.0,0.0,63,0.00,,OVC,0.00,VWS V14.00,2013-04-26 00:54:00,
2013-04-25 20:59:00,48.5,36.9,30.24,SW,225,0.0,0.0,64,0.00,,OVC,0.00,VWS V14.00,2013-04-26 00:59:00,
2013-04-25 21:04:00,48.3,36.3,30.24,SW,225,0.0,0.0,63,0.00,,OVC,0.00,VWS V14.00,2013-04-26 01:04:00,
2013-04-25 21:09:00,48.2,36.6,30.24,SW,225,0.0,0.0,64,0.00,,OVC,0.00,VWS V14.00,2013-04-26 01:09:00,
2013-04-25 21:14:00,48.0,36.8,30.25,SW,225,0.0,0.0,65,0.00,,OVC,0.00,VWS V14.00,2013-04-26 01:14:00,
2013-04-25 21:19:00,48.0,36.8,30.25,WSW,248,0.0,0.0,65,0.00,,OVC,0.00,VWS V14.00,2013-04-26 01:19:00,
2013-04-25 21:24:00,48.0,37.2,30.25,SW,225,0.0,0.0,66,0.00,,OVC,0.00,VWS V14.00,2013-04-26 01:24:00,
2013-04-25 21:29:00,47.8,37.0,30.25,WSW,248,0.0,0.0,66,0.00,,OVC,0.00,VWS V14.00,2013-04-26 01:29:00,
2013-04-25 21:34:00,47.6,37.2,30.26,SW,225,0.0,0.0,67,0.00,,OVC,0.00,VWS V14.00,2013-04-26 01:34:00,
2013-04-25 21:39:00,47.4,37.0,30.26,SW,225,0.0,0.0,67,0.00,,OVC,0.00,VWS V14.00,2013-04-26 01:39:00,
2013-04-25 21:44:00,47.4,37.4,30.26,SW,225,1.3,1.3,68,0.00,,OVC,0.00,VWS V14.00,2013-04-26 01:44:00,
2013-04-25 21:49:00,47.4,37.4,30.26,SW,225,0.0,0.0,68,0.00,,OVC,0.00,VWS V14.00,2013-04-26 01:49:00,
2013-04-25 21:54:00,47.3,37.3,30.26,SW,225,0.0,0.0,68,0.00,,OVC,0.00,VWS V14.00,2013-04-26 01:54:00,
2013-04-25 21:59:00,47.3,37.3,30.26,SW,225,0.0,0.0,68,0.00,,OVC,0.00,VWS V14.00,2013-04-26 01:59:00,
2013-04-25 22:04:00,47.1,37.5,30.26,SW,225,0.8,0.8,69,0.00,,OVC,0.00,VWS V14.00,2013-04-26 02:04:00,
2013-04-25 22:09:00,47.1,37.5,30.26,SW,225,0.0,0.0,69,0.00,,OVC,0.00,VWS V14.00,2013-04-26 02:09:00,
2013-04-25 22:14:00,47.1,37.5,30.26,WSW,248,0.0,0.0,69,0.00,,OVC,0.00,VWS V14.00,2013-04-26 02:14:00,
2013-04-25 22:19:00,46.9,37.3,30.26,North,0,0.0,0.0,69,0.00,,OVC,0.00,VWS V14.00,2013-04-26 02:19:00,
2013-04-25 22:24:00,46.9,37.3,30.26,SW,225,0.0,0.0,69,0.00,,OVC,0.00,VWS V14.00,2013-04-26 02:24:00,
2013-04-25 22:29:00,46.9,37.3,30.26,SW,225,0.0,1.3,69,0.00,,OVC,0.00,VWS V14.00,2013-04-26 02:29:00,
2013-04-25 22:34:00,46.7,37.1,30.26,SW,225,0.0,0.0,69,0.00,,OVC,0.00,VWS V14.00,2013-04-26 02:34:00,
2013-04-25 22:39:00,46.5,36.9,30.26,WSW,248,0.0,0.0,69,0.00,,OVC,0.00,VWS V14.00,2013-04-26 02:39:00,
2013-04-25 22:44:00,46.5,36.9,30.27,SW,225,0.0,0.0,69,0.00,,OVC,0.00,VWS V14.00,2013-04-26 02:44:00,
2013-04-25 22:49:00,46.5,37.3,30.27,SW,225,2.4,2.4,70,0.00,,OVC,0.00,VWS V14.00,2013-04-26 02:49:00,
2013-04-25 22:54:00,46.5,37.3,30.27,WSW,248,0.0,0.0,70,0.00,,OVC,0.00,VWS V14.00,2013-04-26 02:54:00,
2013-04-25 22:59:00,46.4,37.2,30.27,WSW,248,0.0,0.0,70,0.00,,OVC,0.00,VWS V14.00,2013-04-26 02:59:00,
2013-04-25 23:04:00,46.2,37.0,30.27,WSW,248,0.0,0.0,70,0.00,,OVC,0.00,VWS V14.00,2013-04-26 03:04:00,
2013-04-25 23:09:00,46.2,37.0,30.27,SW,225,2.4,2.4,70,0.00,,OVC,0.00,VWS V14.00,2013-04-26 03:09:00,
2013-04-25 23:14:00,46.2,37.0,30.27,SW,225,0.0,0.0,70,0.00,,OVC,0.00,VWS V14.00,2013-04-26 03:14:00,
2013-04-25 23:19:00,46.2,37.0,30.27,SW,225,1.3,1.3,70,0.00,,OVC,0.00,VWS V14.00,2013-04-26 03:19:00,
2013-04-25 23:24:00,46.0,36.8,30.27,SW,225,0.0,0.0,70,0.00,,OVC,0.00,VWS V14.00,2013-04-26 03:24:00,
2013-04-25 23:29:00,46.0,36.8,30.27,SW,225,0.0,0.0,70,0.00,,OVC,0.00,VWS V14.00,2013-04-26 03:29:00,
2013-04-25 23:34:00,45.6,36.4,30.27,WSW,248,0.0,0.0,70,0.00,,OVC,0.00,VWS V14.00,2013-04-26 03:34:00,
2013-04-25 23:39:00,45.6,36.8,30.27,WSW,248,0.0,0.0,71,0.00,,OVC,0.00,VWS V14.00,2013-04-26 03:39:00,
2013-04-25 23:44:00,45.3,36.5,30.27,WSW,248,0.0,0.0,71,0.00,,OVC,0.00,VWS V14.00,2013-04-26 03:44:00,
2013-04-25 23:49:00,45.1,36.3,30.27,WSW,248,0.0,0.0,71,0.00,,OVC,0.00,VWS V14.00,2013-04-26 03:49:00,
2013-04-25 23:54:00,45.1,36.3,30.28,WSW,248,0.0,0.0,71,0.00,,OVC,0.00,VWS V14.00,2013-04-26 03:54:00,
2013-04-25 23:59:00,44.9,36.4,30.28,WSW,248,0.0,0.0,72,0.00,,OVC,0.00,VWS V14.00,2013-04-26 03:59:00,